Regional Weather Roundup
Issued by NWS Midland/Odessa, TX

Skip options and go directly to product.
Home | Oldest Version | Next Version | Current Version | All | Text Only | Save Text | Print | Product List | Glossary On

Skip product version selection by date and time.   
332
ASUS44 KMAF 041901
RWRMAF
MIDLAND AREA WEATHER ROUNDUP
NATIONAL WEATHER SERVICE MIDLAND TX
200 PM CDT WED MAY 04 2016

...IN SOUTHWEST TEXAS AND SOUTHEAST NEW MEXICO...

CITY           SKY/WX    TMP DP  RH WIND       PRES   REMARKS
ALPINE         SUNNY     75  25  15 NE6       30.31F
ANDREWS        FAIR      78  31  18 N5        30.20F
ARTESIA        SUNNY     77  30  18 SE8G14    30.22F
BIG SPRING     SUNNY     75  33  21 N8G21     30.19F
CARLSBAD       SUNNY     78  30  17 E9G16     30.20F
DRYDEN           N/A     85  35  16 VRB7      30.13F
FORT STOCKTON  SUNNY     81  32  17 MISG      30.19F
GUAD PASS      NOT AVBL
HOBBS          SUNNY     77  23  13 N8        30.22F
MARFA          SUNNY     75  27  17 E9        30.27F
MIDLAND AIRPK  SUNNY     80  26  13 NE7       30.19F
MIDLAND INTL   SUNNY     80  29  15 CALM      30.17F
ODESSA         SUNNY     81  29  15 NW8       30.18F
PECOS          SUNNY     79  33  18 CALM      30.19F
PRESIDIO       FAIR      85  37  18 E10G16    30.14F
SEMINOLE       SUNNY     80  29  15 N6        30.20F
SNYDER           N/A     76  38  24 N10G17    30.16F
WINK           SUNNY     82  30  15 VRB3      30.17F
$$
...OTHER STATIONS IN TEXAS...

CITY           SKY/WX    TMP DP  RH WIND       PRES   REMARKS
ABILENE        SUNNY     76  45  33 N13       30.13F
AMARILLO       SUNNY     75  39  27 NW10      30.19F
AUSTIN         MOSUNNY   82  54  37 N13G20    30.04F
BROWNSVILLE    SUNNY     83  55  38 N15G21    30.06F
CORPUS CHRISTI MOSUNNY   85  47  26 N6        30.05F
DALLAS FTW     MOSUNNY   80  50  34 NW18G24   30.02F
DEL RIO        SUNNY     84  46  26 MISG      30.09F
EL PASO        MOSUNNY   80  24  12 E10G20    30.19F
HOUSTON INT    MOSUNNY   79  53  40 NW12G20   30.02F
LUBBOCK        SUNNY     80  32  17 N10G20    30.17F
SAN ANGELO     SUNNY     80  35  19 NW10      30.14F
SAN ANTONIO    MOSUNNY   83  52  34 NW6       30.06F
WACO           SUNNY     82  49  31 NW8G22    30.03F
WICHITA FALLS  NOT AVBL
$$
...OTHER LOCATIONS IN NEW MEXICO...

CITY           SKY/WX    TMP DP  RH WIND       PRES   REMARKS
ALAMAGORDO     SUNNY     77  27  15 SW8       30.23F
ALBUQUERQUE    MOSUNNY   72  27  18 W7        30.28F
CANNON AFB     SUNNY     75  28  17 VRB6      30.22F
CLOVIS         SUNNY     73  34  23 N7G17     30.23F
HOLLOMAN AFB   NOT AVBL
ROSWELL        SUNNY     76  27  16 SW5       30.22F
RUIDOSO          N/A     64  14  14 N8        30.37F
SANTA FE       SUNNY     70  20  15 VRB5      30.31F
TRUTH OR CONSE SUNNY     74  25  16 VRB3      30.24F
TUCUMCARI      SUNNY     76  26  15 VRB3      30.20F
$$

USA.gov is the U.S. government's official web portal to all federal, state and local government web resources and services.